Location: Petrozavodsk
(61.7955°N, 34.3748°E)
Time: 23:55:37
(UTC+03:00)

Envisat - Pass Details

Date: 29 March 2023
Orbit: 763 x 765 km, 98.2° (Epoch: 31 May)

Event Time Altitude Azimuth Distance (km) Brightness Sun altitude
Rises 03:17:56 0° 21° (NNE) 3,249 7.6 -18.9°
Reaches altitude 10° 03:21:02 10° 41° (NE) 2,318 6.8 -18.7°
Maximum altitude 03:24:26 18° 83° (E) 1,839 5.6 -18.4°
Drops below altitude 10° 03:27:48 10° 125° (SE) 2,307 5.6 -18.2°
Sets 03:30:52 0° 144° (SE) 3,228 6.1 -17.9°
